PHZLV EHGG-EHRD

Flight info

Callsign PHZLV
Flight time 0h 50m
Altitude 9000
Route ENKOS
Aircraft SF50/L-BDGRSWY/LB2U2

Departure

Time 2026-05-06 17:54
Airport Groningen Airport Eelde (EHGG)

Arrival

Time 2026-05-06 18:44
Airport Rotterdam The Hague Airport (EHRD)
Time Latitude Longitude Altitude Speed Heading
2026-05-06 17:39 53.13080 6.58597 16 ft 0 kts 198°
2026-05-06 17:47 53.13065 6.58590 16 ft 5 kts 194°
2026-05-06 17:47 53.13017 6.58570 16 ft 8 kts 203°
2026-05-06 17:48 53.12959 6.58499 16 ft 12 kts 231°
2026-05-06 17:48 53.12983 6.58381 16 ft 11 kts 296°
2026-05-06 17:48 53.13019 6.58245 16 ft 14 kts 299°
2026-05-06 17:48 53.13051 6.58081 17 ft 16 kts 257°
2026-05-06 17:49 53.12946 6.57999 18 ft 21 kts 191°
2026-05-06 17:49 53.12765 6.57952 14 ft 31 kts 189°
2026-05-06 17:49 53.12548 6.57894 14 ft 31 kts 189°
2026-05-06 17:49 53.12336 6.57838 15 ft 30 kts 185°
2026-05-06 17:50 53.12137 6.57777 17 ft 28 kts 214°
2026-05-06 17:50 53.12016 6.57531 16 ft 28 kts 232°
2026-05-06 17:50 53.11896 6.57274 16 ft 28 kts 231°
2026-05-06 17:50 53.11772 6.57011 16 ft 29 kts 231°
2026-05-06 17:51 53.11659 6.56799 16 ft 19 kts 195°
2026-05-06 17:51 53.11576 6.56831 16 ft 0 kts 142°
2026-05-06 17:53 53.11558 6.56855 16 ft 6 kts 142°
2026-05-06 17:53 53.11519 6.56933 18 ft 13 kts 92°
2026-05-06 17:53 53.11668 6.57265 17 ft 69 kts 51°
2026-05-06 17:53 53.12069 6.58038 255 ft 95 kts 43°
2026-05-06 17:54 53.12503 6.58918 699 ft 110 kts 48°
2026-05-06 17:54 53.12989 6.60004 1245 ft 123 kts 47°
2026-05-06 17:54 53.13590 6.61135 1678 ft 138 kts 48°
2026-05-06 17:54 53.14185 6.62449 2077 ft 147 kts 62°
2026-05-06 17:55 53.14452 6.64122 2479 ft 152 kts 80°
2026-05-06 17:55 53.14377 6.65907 2862 ft 159 kts 98°
2026-05-06 17:55 53.13908 6.67606 3246 ft 165 kts 119°
2026-05-06 17:55 53.13060 6.68949 3629 ft 173 kts 141°
2026-05-06 17:56 53.11942 6.69778 4016 ft 177 kts 153°
2026-05-06 17:56 53.10804 6.70567 4409 ft 177 kts 151°
2026-05-06 17:56 53.09671 6.71380 4801 ft 177 kts 151°
2026-05-06 17:56 53.08527 6.72176 5190 ft 179 kts 153°
2026-05-06 17:57 53.07391 6.72966 5568 ft 180 kts 153°
2026-05-06 17:57 53.06229 6.73774 5962 ft 182 kts 152°
2026-05-06 17:57 53.05059 6.74590 6355 ft 183 kts 153°
2026-05-06 17:57 53.03881 6.75410 6728 ft 184 kts 152°
2026-05-06 17:58 53.02691 6.76228 7095 ft 186 kts 154°
2026-05-06 17:58 53.01408 6.76605 7465 ft 192 kts 179°
2026-05-06 17:58 53.00107 6.76125 7845 ft 194 kts 202°
2026-05-06 17:58 52.98997 6.74865 8232 ft 193 kts 226°
2026-05-06 17:59 52.98256 6.73037 8619 ft 191 kts 249°
2026-05-06 17:59 52.97958 6.70900 8975 ft 194 kts 265°
2026-05-06 17:59 52.97786 6.68515 9000 ft 221 kts 264°
2026-05-06 17:59 52.97564 6.65876 8998 ft 246 kts 263°
2026-05-06 18:00 52.97326 6.62954 8998 ft 264 kts 264°
2026-05-06 18:00 52.97085 6.59855 8995 ft 276 kts 264°
2026-05-06 18:00 52.96833 6.56655 8996 ft 282 kts 264°
2026-05-06 18:00 52.96574 6.53417 8999 ft 284 kts 264°
2026-05-06 18:01 52.96311 6.50163 8998 ft 285 kts 264°
2026-05-06 18:01 52.96050 6.46905 8990 ft 285 kts 264°
2026-05-06 18:01 52.95664 6.43686 8984 ft 286 kts 253°
2026-05-06 18:01 52.94884 6.40634 8986 ft 287 kts 247°
2026-05-06 18:02 52.94103 6.37595 8984 ft 287 kts 249°
2026-05-06 18:02 52.93342 6.34532 8994 ft 287 kts 249°
2026-05-06 18:02 52.92569 6.31482 8992 ft 287 kts 248°
2026-05-06 18:02 52.91786 6.28443 8995 ft 287 kts 248°
2026-05-06 18:03 52.91014 6.25432 8992 ft 287 kts 249°
2026-05-06 18:03 52.90238 6.22388 8992 ft 286 kts 248°
2026-05-06 18:03 52.89536 6.19309 8994 ft 286 kts 251°
2026-05-06 18:03 52.88848 6.16217 8995 ft 286 kts 251°
2026-05-06 18:04 52.88150 6.13139 8995 ft 287 kts 250°
2026-05-06 18:04 52.87453 6.10041 8995 ft 287 kts 251°
2026-05-06 18:04 52.86759 6.06941 8992 ft 286 kts 251°
2026-05-06 18:04 52.86063 6.03842 8993 ft 286 kts 251°
2026-05-06 18:05 52.85365 6.00753 8994 ft 287 kts 250°
2026-05-06 18:05 52.84667 5.97662 8992 ft 287 kts 251°
2026-05-06 18:05 52.83969 5.94573 8995 ft 287 kts 251°
2026-05-06 18:05 52.83270 5.91488 8990 ft 286 kts 251°
2026-05-06 18:06 52.82569 5.88398 8991 ft 286 kts 251°
2026-05-06 18:06 52.81868 5.85312 8995 ft 286 kts 251°
2026-05-06 18:06 52.81167 5.82230 8995 ft 286 kts 251°
2026-05-06 18:06 52.80466 5.79154 8991 ft 286 kts 251°
2026-05-06 18:07 52.79763 5.76069 8998 ft 286 kts 250°
2026-05-06 18:07 52.79063 5.72995 8995 ft 286 kts 251°
2026-05-06 18:07 52.78361 5.69927 8830 ft 281 kts 250°
2026-05-06 18:07 52.77671 5.66917 8697 ft 281 kts 251°
2026-05-06 18:08 52.76976 5.63881 8571 ft 284 kts 250°
2026-05-06 18:08 52.76282 5.60861 8438 ft 285 kts 250°
2026-05-06 18:08 52.75575 5.57788 8305 ft 287 kts 250°
2026-05-06 18:08 52.74865 5.54707 8179 ft 286 kts 250°
2026-05-06 18:09 52.74159 5.51641 8046 ft 286 kts 250°
2026-05-06 18:09 52.73452 5.48576 7923 ft 286 kts 251°
2026-05-06 18:09 52.72741 5.45507 7791 ft 286 kts 250°
2026-05-06 18:09 52.72033 5.42454 7663 ft 285 kts 250°
2026-05-06 18:10 52.71325 5.39401 7537 ft 285 kts 250°
2026-05-06 18:10 52.70614 5.36343 7409 ft 285 kts 250°
2026-05-06 18:10 52.69904 5.33293 7284 ft 285 kts 250°
2026-05-06 18:10 52.69191 5.30237 7156 ft 285 kts 250°
2026-05-06 18:11 52.68274 5.27355 7017 ft 285 kts 234°
2026-05-06 18:11 52.66910 5.24997 6998 ft 284 kts 219°
2026-05-06 18:11 52.65222 5.23301 6790 ft 286 kts 203°
2026-05-06 18:11 52.63334 5.22334 6536 ft 283 kts 192°
2026-05-06 18:12 52.61428 5.21522 6290 ft 282 kts 193°
2026-05-06 18:12 52.59565 5.20685 6027 ft 281 kts 194°
2026-05-06 18:12 52.57683 5.19839 5761 ft 281 kts 193°
2026-05-06 18:12 52.55796 5.19010 5500 ft 280 kts 193°
2026-05-06 18:13 52.53915 5.18188 5244 ft 279 kts 193°
2026-05-06 18:13 52.52044 5.17362 4996 ft 277 kts 193°
2026-05-06 18:13 52.50275 5.16091 4721 ft 278 kts 210°
2026-05-06 18:13 52.48685 5.14322 4460 ft 279 kts 215°
2026-05-06 18:14 52.47093 5.12458 4190 ft 277 kts 213°
2026-05-06 18:14 52.45465 5.10784 3932 ft 277 kts 210°
2026-05-06 18:14 52.43806 5.09194 3673 ft 275 kts 210°
2026-05-06 18:14 52.42172 5.07562 3413 ft 276 kts 211°
2026-05-06 18:15 52.40548 5.05899 3154 ft 275 kts 211°
2026-05-06 18:15 52.38922 5.04254 2996 ft 272 kts 211°
2026-05-06 18:15 52.37298 5.02630 2994 ft 274 kts 211°
2026-05-06 18:15 52.35696 5.01024 2994 ft 274 kts 211°
2026-05-06 18:16 52.34070 4.99389 2991 ft 274 kts 211°
2026-05-06 18:16 52.32448 4.97762 2995 ft 274 kts 211°
2026-05-06 18:16 52.30823 4.96133 2993 ft 274 kts 211°
2026-05-06 18:16 52.29193 4.94502 2991 ft 275 kts 211°
2026-05-06 18:17 52.27561 4.92869 2993 ft 274 kts 211°
2026-05-06 18:17 52.25952 4.91260 2996 ft 274 kts 211°
2026-05-06 18:17 52.24328 4.89639 2997 ft 273 kts 211°
2026-05-06 18:17 52.22701 4.88015 2996 ft 274 kts 211°
2026-05-06 18:18 52.21084 4.86400 2998 ft 274 kts 211°
2026-05-06 18:18 52.19458 4.84779 2994 ft 273 kts 211°
2026-05-06 18:18 52.17832 4.83163 2999 ft 274 kts 211°
2026-05-06 18:18 52.16204 4.81545 3000 ft 274 kts 211°
2026-05-06 18:19 52.14580 4.79927 2996 ft 274 kts 211°
2026-05-06 18:19 52.12958 4.78317 2999 ft 273 kts 211°
2026-05-06 18:19 52.11338 4.76708 2997 ft 274 kts 211°
2026-05-06 18:19 52.09737 4.75124 2997 ft 272 kts 211°
2026-05-06 18:20 52.08118 4.73519 2997 ft 270 kts 211°
2026-05-06 18:20 52.06553 4.71970 2997 ft 256 kts 211°
2026-05-06 18:20 52.05064 4.70499 2924 ft 246 kts 211°
2026-05-06 18:20 52.03615 4.69068 2657 ft 242 kts 211°
2026-05-06 18:21 52.02181 4.67652 2406 ft 240 kts 211°
2026-05-06 18:21 52.00762 4.66253 2142 ft 238 kts 210°
2026-05-06 18:21 51.99348 4.64863 1993 ft 236 kts 211°
2026-05-06 18:21 51.97943 4.63476 1990 ft 236 kts 210°
2026-05-06 18:22 51.96531 4.62087 1993 ft 239 kts 210°
2026-05-06 18:22 51.95105 4.60686 1992 ft 239 kts 210°
2026-05-06 18:22 51.93688 4.59292 1994 ft 239 kts 210°
2026-05-06 18:22 51.92266 4.57895 1993 ft 238 kts 210°
2026-05-06 18:23 51.90845 4.56502 1991 ft 239 kts 210°
2026-05-06 18:23 51.89505 4.54921 1982 ft 239 kts 226°
2026-05-06 18:23 51.88462 4.52816 1985 ft 241 kts 232°
2026-05-06 18:23 51.87420 4.50738 1986 ft 240 kts 231°
2026-05-06 18:24 51.86358 4.48659 1988 ft 239 kts 231°
2026-05-06 18:24 51.85312 4.46570 1987 ft 238 kts 231°
2026-05-06 18:24 51.84273 4.44488 1987 ft 237 kts 231°
2026-05-06 18:24 51.83232 4.42414 1988 ft 237 kts 231°
2026-05-06 18:25 51.82192 4.40345 1988 ft 238 kts 231°
2026-05-06 18:25 51.81151 4.38274 1988 ft 236 kts 231°
2026-05-06 18:25 51.80108 4.36198 1988 ft 238 kts 231°
2026-05-06 18:25 51.79067 4.34130 1990 ft 236 kts 231°
2026-05-06 18:26 51.78027 4.32066 1985 ft 239 kts 231°
2026-05-06 18:26 51.77052 4.29909 1982 ft 237 kts 243°
2026-05-06 18:26 51.76635 4.27350 1977 ft 236 kts 267°
2026-05-06 18:26 51.76835 4.24754 1986 ft 232 kts 290°
2026-05-06 18:27 51.77597 4.22512 1984 ft 226 kts 312°
2026-05-06 18:27 51.78763 4.20923 1985 ft 221 kts 333°
2026-05-06 18:27 51.80196 4.20104 1985 ft 217 kts 353°
2026-05-06 18:27 51.81691 4.20128 1981 ft 214 kts
2026-05-06 18:28 51.83174 4.20429 1987 ft 215 kts
2026-05-06 18:28 51.84669 4.20738 1984 ft 214 kts 14°
2026-05-06 18:28 51.86035 4.21630 1983 ft 213 kts 31°
2026-05-06 18:28 51.87186 4.23089 1982 ft 205 kts 46°
2026-05-06 18:29 51.88010 4.24886 1980 ft 195 kts 58°
2026-05-06 18:29 51.88723 4.26676 1982 ft 181 kts 56°
2026-05-06 18:29 51.89369 4.28257 1994 ft 159 kts 56°
2026-05-06 18:29 51.89942 4.29679 1932 ft 146 kts 56°
2026-05-06 18:30 51.90300 4.30569 1829 ft 139 kts 56°
2026-05-06 18:30 51.90969 4.32234 1585 ft 129 kts 56°
2026-05-06 18:30 51.91412 4.33339 1441 ft 106 kts 57°
2026-05-06 18:30 51.91671 4.33987 1415 ft 98 kts 56°
2026-05-06 18:31 51.92025 4.34865 1353 ft 91 kts 55°
2026-05-06 18:31 51.92371 4.35725 1159 ft 92 kts 55°
2026-05-06 18:31 51.92694 4.36519 1015 ft 77 kts 55°
2026-05-06 18:31 51.93001 4.37268 911 ft 82 kts 56°
2026-05-06 18:32 51.93315 4.38057 846 ft 85 kts 57°
2026-05-06 18:32 51.93649 4.38922 700 ft 94 kts 56°
2026-05-06 18:32 51.93993 4.39822 558 ft 93 kts 57°
2026-05-06 18:32 51.94354 4.40679 684 ft 92 kts 53°
2026-05-06 18:33 51.94718 4.41546 956 ft 95 kts 55°
2026-05-06 18:33 51.95096 4.42487 1154 ft 97 kts 64°
2026-05-06 18:33 51.95013 4.43443 1542 ft 95 kts 123°
2026-05-06 18:33 51.94362 4.43974 1706 ft 114 kts 149°
2026-05-06 18:34 51.93585 4.44652 1970 ft 135 kts 144°
2026-05-06 18:34 51.92721 4.45435 2105 ft 147 kts 145°
2026-05-06 18:34 51.91825 4.46249 2170 ft 148 kts 145°
2026-05-06 18:34 51.90920 4.47061 2207 ft 149 kts 145°
2026-05-06 18:35 51.89983 4.47777 2198 ft 153 kts 161°
2026-05-06 18:35 51.88922 4.47594 2014 ft 159 kts 205°
2026-05-06 18:35 51.88182 4.46329 2008 ft 156 kts 242°
2026-05-06 18:35 51.87640 4.44816 2011 ft 156 kts 239°
2026-05-06 18:36 51.87080 4.43320 2011 ft 156 kts 240°
2026-05-06 18:36 51.86520 4.41826 2013 ft 154 kts 240°
2026-05-06 18:36 51.85976 4.40344 2013 ft 156 kts 240°
2026-05-06 18:36 51.85421 4.38836 2015 ft 154 kts 240°
2026-05-06 18:37 51.84870 4.37350 2012 ft 153 kts 240°
2026-05-06 18:37 51.84317 4.35847 2009 ft 156 kts 240°
2026-05-06 18:37 51.83729 4.34228 2008 ft 178 kts 240°
2026-05-06 18:37 51.83083 4.32443 2019 ft 188 kts 240°
2026-05-06 18:38 51.82445 4.30589 2016 ft 187 kts 249°
2026-05-06 18:38 51.82334 4.28566 2005 ft 181 kts 286°
2026-05-06 18:38 51.82985 4.26911 2003 ft 173 kts 324°
2026-05-06 18:38 51.83982 4.25841 2008 ft 172 kts 331°
2026-05-06 18:39 51.84989 4.24784 2009 ft 173 kts 330°
2026-05-06 18:39 51.86055 4.23997 1999 ft 166 kts 355°
2026-05-06 18:39 51.87130 4.24362 2008 ft 160 kts 29°
2026-05-06 18:40 51.88761 4.26804 2009 ft 162 kts 54°
2026-05-06 18:40 51.89397 4.28268 2015 ft 151 kts 55°
2026-05-06 18:40 51.89952 4.29632 1979 ft 141 kts 56°
2026-05-06 18:40 51.90472 4.30903 1820 ft 130 kts 56°
2026-05-06 18:41 51.90961 4.32108 1641 ft 128 kts 57°
2026-05-06 18:41 51.91452 4.33330 1460 ft 131 kts 56°
2026-05-06 18:41 51.91944 4.34561 1281 ft 129 kts 56°
2026-05-06 18:41 51.92380 4.35658 1117 ft 104 kts 56°
2026-05-06 18:42 51.92750 4.36583 979 ft 93 kts 56°
2026-05-06 18:42 51.93095 4.37443 852 ft 89 kts 55°
2026-05-06 18:42 51.93434 4.38286 722 ft 93 kts 55°
2026-05-06 18:42 51.93783 4.39160 598 ft 89 kts 56°
2026-05-06 18:43 51.94116 4.39993 470 ft 88 kts 57°
2026-05-06 18:43 51.94441 4.40875 326 ft 92 kts 58°
2026-05-06 18:43 51.94782 4.41755 205 ft 90 kts 56°
2026-05-06 18:43 51.95119 4.42615 91 ft 87 kts 56°
2026-05-06 18:44 51.95400 4.43346 -4 ft 71 kts 53°
2026-05-06 18:44 51.95688 4.44025 -11 ft 79 kts 58°
2026-05-06 18:44 51.95922 4.44660 -15 ft 32 kts 115°
2026-05-06 18:44 51.95787 4.44750 -15 ft 19 kts 220°
2026-05-06 18:45 51.95694 4.44531 -12 ft 28 kts 237°
2026-05-06 18:45 51.95584 4.44252 -10 ft 28 kts 236°
2026-05-06 18:45 51.95469 4.43973 -12 ft 31 kts 236°
2026-05-06 18:45 51.95344 4.43665 -15 ft 32 kts 238°
2026-05-06 18:46 51.95242 4.43515 -14 ft 11 kts 150°
2026-05-06 18:46 51.95127 4.43638 -13 ft 27 kts 147°
2026-05-06 18:46 51.95020 4.43775 -13 ft 11 kts 76°
2026-05-06 18:46 51.95062 4.43886 -13 ft 8 kts 46°
2026-05-06 18:47 51.95094 4.43877 -13 ft 0 kts 322°